LVCKD SADF-SARC

Flight info

Callsign LVCKD
Flight time N/A
Altitude 25000
Route LANDA UN785 GUA UL793 KILIP KILIP1V
Aircraft BE9L/L-SBDFGRY/SB1

Departure

Time 2026-04-23 21:29
Airport San Fernando Airport (SADF)

Arrival

Time N/A
Airport Corrientes Airport (SARC)
Time Latitude Longitude Altitude Speed Heading
2026-04-23 21:10 -34.45576 -58.58443 11 ft 0 kts 188°
2026-04-23 21:18 -34.45579 -58.58448 11 ft 2 kts 264°
2026-04-23 21:19 -34.45552 -58.58468 11 ft 5 kts 327°
2026-04-23 21:19 -34.45562 -58.58519 11 ft 8 kts 238°
2026-04-23 21:19 -34.45592 -58.58585 11 ft 9 kts 244°
2026-04-23 21:19 -34.45625 -58.58663 11 ft 10 kts 242°
2026-04-23 21:20 -34.45660 -58.58745 11 ft 11 kts 243°
2026-04-23 21:20 -34.45693 -58.58823 11 ft 9 kts 244°
2026-04-23 21:20 -34.45713 -58.58871 11 ft 7 kts 242°
2026-04-23 21:20 -34.45737 -58.58924 11 ft 6 kts 240°
2026-04-23 21:21 -34.45758 -58.58973 11 ft 7 kts 247°
2026-04-23 21:21 -34.45791 -58.59049 11 ft 13 kts 243°
2026-04-23 21:21 -34.45839 -58.59162 11 ft 16 kts 240°
2026-04-23 21:21 -34.45896 -58.59294 11 ft 18 kts 242°
2026-04-23 21:22 -34.45964 -58.59451 11 ft 21 kts 242°
2026-04-23 21:22 -34.46017 -58.59573 11 ft 11 kts 243°
2026-04-23 21:22 -34.46030 -58.59606 11 ft 0 kts 253°
2026-04-23 21:26 -34.46033 -58.59626 11 ft 6 kts 274°
2026-04-23 21:26 -34.45992 -58.59689 11 ft 11 kts 315°
2026-04-23 21:26 -34.45959 -58.59683 11 ft 1 kts 42°
2026-04-23 21:27 -34.45958 -58.59682 11 ft 0 kts 42°
2026-04-23 21:28 -34.45922 -58.59641 11 ft 31 kts 43°
2026-04-23 21:28 -34.45553 -58.59208 11 ft 105 kts 45°
2026-04-23 21:29 -34.44984 -58.58557 337 ft 114 kts 40°
2026-04-23 21:29 -34.44410 -58.57913 855 ft 114 kts 43°
2026-04-23 21:29 -34.43796 -58.57215 1262 ft 125 kts 45°
2026-04-23 21:29 -34.43151 -58.56457 1612 ft 136 kts 44°
2026-04-23 21:30 -34.42445 -58.55598 1944 ft 145 kts 43°
2026-04-23 21:30 -34.41694 -58.54780 2354 ft 147 kts 28°
2026-04-23 21:30 -34.40682 -58.54634 2762 ft 150 kts 353°
2026-04-23 21:30 -34.39660 -58.54824 3174 ft 151 kts 352°
2026-04-23 21:31 -34.38610 -58.54993 3629 ft 151 kts 353°
2026-04-23 21:31 -34.37553 -58.55137 4056 ft 152 kts 354°
2026-04-23 21:31 -34.36488 -58.55262 4474 ft 153 kts 354°
2026-04-23 21:31 -34.35431 -58.55368 4873 ft 154 kts 355°
2026-04-23 21:32 -34.34342 -58.55462 5270 ft 155 kts 355°
2026-04-23 21:32 -34.33261 -58.55544 5650 ft 157 kts 355°
2026-04-23 21:32 -34.32167 -58.55620 6021 ft 158 kts 356°
2026-04-23 21:32 -34.31070 -58.55687 6381 ft 159 kts 356°
2026-04-23 21:33 -34.29960 -58.55747 6732 ft 160 kts 356°
2026-04-23 21:33 -34.28831 -58.55804 7077 ft 161 kts 356°
2026-04-23 21:33 -34.27707 -58.55859 7409 ft 163 kts 356°
2026-04-23 21:33 -34.26558 -58.55907 7823 ft 165 kts 357°
2026-04-23 21:34 -34.25411 -58.55955 8261 ft 165 kts 356°
2026-04-23 21:34 -34.24258 -58.56006 8653 ft 167 kts 356°
2026-04-23 21:34 -34.23089 -58.56053 9047 ft 168 kts 356°
2026-04-23 21:34 -34.21920 -58.56105 9424 ft 170 kts 356°
2026-04-23 21:35 -34.20342 -58.56170 9912 ft 172 kts 356°
2026-04-23 21:35 -34.19533 -58.56208 10153 ft 173 kts 356°
2026-04-23 21:35 -34.18333 -58.56256 10504 ft 174 kts 356°
2026-04-23 21:35 -34.17113 -58.56309 10859 ft 174 kts 356°
2026-04-23 21:36 -34.14677 -58.56413 11567 ft 176 kts 356°
2026-04-23 21:36 -34.13467 -58.56466 11906 ft 176 kts 356°
2026-04-23 21:36 -34.12220 -58.56516 12250 ft 176 kts 356°
2026-04-23 21:37 -34.11006 -58.56566 12584 ft 176 kts 356°
2026-04-23 21:37 -34.09760 -58.56622 12920 ft 177 kts 355°
2026-04-23 21:37 -34.08541 -58.56671 13243 ft 177 kts 355°
2026-04-23 21:37 -34.07300 -58.56724 13567 ft 177 kts 354°
2026-04-23 21:38 -34.06060 -58.56778 13883 ft 177 kts 355°
2026-04-23 21:38 -34.04826 -58.56828 14190 ft 177 kts 354°
2026-04-23 21:38 -34.03582 -58.56879 14498 ft 177 kts 354°
2026-04-23 21:38 -34.02352 -58.56934 14794 ft 177 kts 354°
2026-04-23 21:39 -34.01115 -58.56984 15091 ft 177 kts 353°
2026-04-23 21:39 -33.99872 -58.57036 15383 ft 177 kts 353°
2026-04-23 21:39 -33.98635 -58.57091 15670 ft 177 kts 353°
2026-04-23 21:39 -33.97391 -58.57142 15954 ft 177 kts 353°
2026-04-23 21:40 -33.96164 -58.57192 16229 ft 177 kts 352°
2026-04-23 21:40 -33.94931 -58.57244 16504 ft 177 kts 352°
2026-04-23 21:40 -33.93692 -58.57300 16774 ft 177 kts 352°
2026-04-23 21:40 -33.92451 -58.57350 17041 ft 177 kts 352°
2026-04-23 21:41 -33.91221 -58.57401 17307 ft 178 kts 351°
2026-04-23 21:41 -33.89959 -58.57452 17671 ft 177 kts 351°
2026-04-23 21:41 -33.88689 -58.57504 18028 ft 176 kts 351°
2026-04-23 21:41 -33.87452 -58.57556 18349 ft 177 kts 350°
2026-04-23 21:42 -33.86221 -58.57606 18683 ft 176 kts 350°
2026-04-23 21:42 -33.84985 -58.57658 18997 ft 176 kts 349°
2026-04-23 21:42 -33.83748 -58.57714 19314 ft 176 kts 349°
2026-04-23 21:42 -33.82520 -58.57766 19622 ft 176 kts 349°
2026-04-23 21:43 -33.81282 -58.57816 19925 ft 176 kts 348°
2026-04-23 21:43 -33.80054 -58.57867 20224 ft 175 kts 348°
2026-04-23 21:43 -33.78838 -58.57917 20512 ft 175 kts 348°
2026-04-23 21:43 -33.77607 -58.57968 20803 ft 175 kts 348°
2026-04-23 21:44 -33.76387 -58.58019 21083 ft 175 kts 347°
2026-04-23 21:44 -33.75137 -58.58076 21172 ft 186 kts 348°
2026-04-23 21:44 -33.73791 -58.58136 21190 ft 197 kts 348°
2026-04-23 21:44 -33.72385 -58.58196 21187 ft 207 kts 349°
2026-04-23 21:45 -33.70901 -58.58257 21182 ft 214 kts 349°
2026-04-23 21:45 -33.69375 -58.58317 21179 ft 219 kts 349°
2026-04-23 21:45 -33.67834 -58.58378 21176 ft 222 kts 350°
2026-04-23 21:45 -33.66252 -58.58438 21174 ft 225 kts 350°
2026-04-23 21:46 -33.64673 -58.58499 21170 ft 227 kts 350°
2026-04-23 21:46 -33.63097 -58.58568 21167 ft 228 kts 350°
2026-04-23 21:46 -33.61505 -58.58632 21163 ft 230 kts 350°
2026-04-23 21:46 -33.59886 -58.58696 21165 ft 230 kts 350°
2026-04-23 21:47 -33.58273 -58.58765 21158 ft 231 kts 350°
2026-04-23 21:47 -33.56621 -58.58830 21165 ft 231 kts 350°
2026-04-23 21:47 -33.55025 -58.58899 21158 ft 232 kts 350°
2026-04-23 21:47 -33.53389 -58.58963 21159 ft 232 kts 350°
2026-04-23 21:48 -33.51769 -58.59031 21158 ft 232 kts 350°
2026-04-23 21:48 -33.50135 -58.59096 21158 ft 232 kts 350°
2026-04-23 21:48 -33.48517 -58.59163 21158 ft 232 kts 350°
2026-04-23 21:48 -33.46869 -58.59231 21158 ft 232 kts 350°
2026-04-23 21:49 -33.45238 -58.59296 21158 ft 232 kts 350°
2026-04-23 21:49 -33.43622 -58.59364 21158 ft 232 kts 350°
2026-04-23 21:49 -33.42007 -58.59428 21158 ft 232 kts 350°
2026-04-23 21:49 -33.40359 -58.59496 21158 ft 232 kts 350°
2026-04-23 21:50 -33.38739 -58.59562 21158 ft 232 kts 350°
2026-04-23 21:50 -33.37118 -58.59628 21158 ft 232 kts 350°
2026-04-23 21:50 -33.35496 -58.59695 21158 ft 232 kts 350°
2026-04-23 21:50 -33.33843 -58.59763 21158 ft 232 kts 350°
2026-04-23 21:51 -33.32204 -58.59829 21157 ft 232 kts 350°
2026-04-23 21:51 -33.30571 -58.59898 21158 ft 232 kts 350°
2026-04-23 21:51 -33.28954 -58.59961 21158 ft 232 kts 350°
2026-04-23 21:51 -33.27321 -58.60030 21158 ft 232 kts 350°
2026-04-23 21:52 -33.25660 -58.60096 21158 ft 232 kts 350°
2026-04-23 21:52 -33.24021 -58.60165 21158 ft 232 kts 350°
2026-04-23 21:52 -33.22394 -58.60230 21158 ft 232 kts 350°
2026-04-23 21:52 -33.20762 -58.60297 21158 ft 232 kts 350°
2026-04-23 21:53 -33.19107 -58.60364 21158 ft 232 kts 350°
2026-04-23 21:53 -33.17462 -58.60430 21158 ft 232 kts 350°
2026-04-23 21:53 -33.15837 -58.60498 21158 ft 232 kts 350°
2026-04-23 21:53 -33.14175 -58.60564 21158 ft 232 kts 350°
2026-04-23 21:54 -33.12530 -58.60632 21158 ft 232 kts 350°
2026-04-23 21:54 -33.10898 -58.60698 21163 ft 232 kts 350°
2026-04-23 21:54 -33.09238 -58.60764 21171 ft 231 kts 350°
2026-04-23 21:54 -33.07601 -58.60832 21163 ft 229 kts 350°
2026-04-23 21:55 -33.05441 -58.60916 21164 ft 226 kts 350°
2026-04-23 21:55 -33.04399 -58.60959 21159 ft 225 kts 350°
2026-04-23 21:55 -33.02861 -58.61023 21164 ft 222 kts 350°
2026-04-23 21:55 -33.01319 -58.61085 21155 ft 220 kts 351°
2026-04-23 21:56 -32.99767 -58.61146 21155 ft 216 kts 351°
2026-04-23 21:56 -32.98265 -58.61208 21154 ft 213 kts 351°
2026-04-23 21:56 -32.96798 -58.61267 21153 ft 210 kts 352°
2026-04-23 21:56 -32.95329 -58.61326 21151 ft 207 kts 352°
2026-04-23 21:57 -32.93888 -58.61383 21147 ft 205 kts 352°
2026-04-23 21:57 -32.92451 -58.61443 21149 ft 203 kts 352°
2026-04-23 21:57 -32.91043 -58.61500 21150 ft 202 kts 352°
2026-04-23 21:57 -32.89609 -58.61557 21153 ft 201 kts 352°
2026-04-23 21:58 -32.88088 -58.61617 21161 ft 201 kts 352°
2026-04-23 21:58 -32.86598 -58.61679 21161 ft 201 kts 352°
2026-04-23 21:58 -32.85307 -58.61730 21160 ft 201 kts 352°
2026-04-23 21:58 -32.83867 -58.61788 21160 ft 201 kts 352°
2026-04-23 21:59 -32.82470 -58.61845 21160 ft 201 kts 352°
2026-04-23 21:59 -32.81061 -58.61901 21160 ft 201 kts 352°
2026-04-23 21:59 -32.79651 -58.61958 21160 ft 201 kts 352°
2026-04-23 22:00 -32.76809 -58.62072 21160 ft 201 kts 352°
2026-04-23 22:00 -32.75407 -58.62129 21159 ft 201 kts 352°
2026-04-23 22:00 -32.73997 -58.62186 21159 ft 201 kts 352°
2026-04-23 22:00 -32.72590 -58.62243 21159 ft 201 kts 352°
2026-04-23 22:01 -32.71180 -58.62300 21159 ft 201 kts 352°
2026-04-23 22:01 -32.69787 -58.62356 21159 ft 201 kts 352°
2026-04-23 22:01 -32.68363 -58.62413 21159 ft 201 kts 352°
2026-04-23 22:01 -32.66953 -58.62470 21159 ft 201 kts 352°
2026-04-23 22:02 -32.65546 -58.62527 21159 ft 201 kts 352°
2026-04-23 22:02 -32.64135 -58.62582 21158 ft 201 kts 352°
2026-04-23 22:02 -32.62722 -58.62639 21158 ft 201 kts 352°
2026-04-23 22:02 -32.61313 -58.62696 21158 ft 201 kts 352°
2026-04-23 22:03 -32.59900 -58.62752 21158 ft 201 kts 352°
2026-04-23 22:03 -32.58502 -58.62809 21158 ft 201 kts 352°
2026-04-23 22:03 -32.57077 -58.62866 21158 ft 201 kts 352°
2026-04-23 22:03 -32.55657 -58.62924 21158 ft 201 kts 352°
2026-04-23 22:04 -32.54264 -58.62978 21158 ft 201 kts 352°
2026-04-23 22:04 -32.52842 -58.63035 21157 ft 200 kts 352°
2026-04-23 22:04 -32.51414 -58.63093 21157 ft 200 kts 352°
2026-04-23 22:04 -32.50006 -58.63150 21157 ft 200 kts 352°
2026-04-23 22:05 -32.48597 -58.63205 21157 ft 200 kts 352°
2026-04-23 22:05 -32.47184 -58.63262 21157 ft 200 kts 352°
2026-04-23 22:05 -32.45773 -58.63319 21157 ft 200 kts 352°
2026-04-23 22:05 -32.44381 -58.63375 21157 ft 200 kts 352°
2026-04-23 22:06 -32.42956 -58.63432 21157 ft 200 kts 352°
2026-04-23 22:06 -32.41577 -58.63486 21156 ft 200 kts 352°
2026-04-23 22:06 -32.40160 -58.63544 21156 ft 200 kts 352°
2026-04-23 22:06 -32.38767 -58.63598 21156 ft 200 kts 352°
2026-04-23 22:07 -32.37342 -58.63655 21156 ft 200 kts 352°
2026-04-23 22:07 -32.35941 -58.63710 21156 ft 200 kts 352°
2026-04-23 22:07 -32.34539 -58.63767 21156 ft 200 kts 352°
2026-04-23 22:07 -32.33151 -58.63823 21156 ft 200 kts 352°
2026-04-23 22:08 -32.31747 -58.63879 21156 ft 200 kts 352°
2026-04-23 22:08 -32.30331 -58.63935 21155 ft 200 kts 352°
2026-04-23 22:08 -32.28942 -58.63990 21155 ft 200 kts 352°
2026-04-23 22:08 -32.27527 -58.64047 21155 ft 200 kts 352°
2026-04-23 22:09 -32.26142 -58.64101 21155 ft 200 kts 352°
2026-04-23 22:09 -32.24735 -58.64158 21155 ft 200 kts 352°
2026-04-23 22:09 -32.23334 -58.64214 21155 ft 200 kts 352°
2026-04-23 22:09 -32.21918 -58.64270 21155 ft 200 kts 352°
2026-04-23 22:10 -32.20521 -58.64325 21155 ft 200 kts 352°
2026-04-23 22:10 -32.19143 -58.64379 21154 ft 200 kts 352°
2026-04-23 22:10 -32.17734 -58.64436 21155 ft 200 kts 352°
2026-04-23 22:10 -32.16341 -58.64491 21154 ft 200 kts 352°
2026-04-23 22:11 -32.14939 -58.64548 21154 ft 200 kts 352°
2026-04-23 22:11 -32.13538 -58.64602 21154 ft 200 kts 352°
2026-04-23 22:11 -32.12145 -58.64658 21154 ft 200 kts 352°
2026-04-23 22:11 -32.10766 -58.64713 21154 ft 200 kts 352°
2026-04-23 22:12 -32.09369 -58.64770 21154 ft 199 kts 351°
2026-04-23 22:12 -32.07960 -58.64836 21153 ft 199 kts 351°
2026-04-23 22:12 -32.06569 -58.64909 21153 ft 199 kts 351°
2026-04-23 22:12 -32.05187 -58.64990 21153 ft 199 kts 351°
2026-04-23 22:13 -32.03792 -58.65079 21153 ft 199 kts 350°
2026-04-23 22:13 -32.02415 -58.65176 21153 ft 199 kts 350°
2026-04-23 22:13 -32.01031 -58.65281 21153 ft 199 kts 350°
2026-04-23 22:13 -31.99636 -58.65395 21153 ft 198 kts 349°
2026-04-23 22:14 -31.98242 -58.65517 21152 ft 198 kts 349°
2026-04-23 22:14 -31.96868 -58.65646 21150 ft 198 kts 349°
2026-04-23 22:14 -31.95457 -58.65787 21149 ft 198 kts 349°
2026-04-23 22:14 -31.94083 -58.65932 21147 ft 198 kts 349°
2026-04-23 22:15 -31.92700 -58.66086 21146 ft 198 kts 348°
2026-04-23 22:15 -31.91331 -58.66247 21144 ft 198 kts 348°
2026-04-23 22:15 -31.89938 -58.66419 21143 ft 198 kts 348°
2026-04-23 22:15 -31.88601 -58.66592 21152 ft 198 kts 348°
2026-04-23 22:16 -31.87225 -58.66778 21149 ft 198 kts 347°
2026-04-23 22:16 -31.85836 -58.66974 21148 ft 198 kts 347°
2026-04-23 22:16 -31.84450 -58.67179 21147 ft 199 kts 347°
2026-04-23 22:16 -31.83052 -58.67394 21146 ft 199 kts 347°
2026-04-23 22:17 -31.81672 -58.67614 21145 ft 199 kts 346°
2026-04-23 22:17 -31.80305 -58.67839 21144 ft 199 kts 346°
2026-04-23 22:17 -31.78933 -58.68074 21142 ft 199 kts 346°
2026-04-23 22:17 -31.77557 -58.68317 21141 ft 199 kts 346°
2026-04-23 22:18 -31.76177 -58.68569 21140 ft 199 kts 346°
2026-04-23 22:18 -31.74801 -58.68828 21139 ft 198 kts 345°
2026-04-23 22:18 -31.73421 -58.69096 21138 ft 198 kts 345°
2026-04-23 22:18 -31.72061 -58.69368 21136 ft 198 kts 345°
2026-04-23 22:19 -31.70708 -58.69646 21135 ft 198 kts 345°
2026-04-23 22:19 -31.69343 -58.69934 21134 ft 198 kts 344°
2026-04-23 22:19 -31.67962 -58.70234 21132 ft 198 kts 344°
2026-04-23 22:19 -31.66610 -58.70536 21131 ft 198 kts 344°
2026-04-23 22:20 -31.65251 -58.70846 21131 ft 198 kts 343°
2026-04-23 22:20 -31.63878 -58.71169 21131 ft 198 kts 343°
2026-04-23 22:20 -31.62524 -58.71494 21131 ft 197 kts 343°
2026-04-23 22:20 -31.61168 -58.71828 21131 ft 197 kts 343°
2026-04-23 22:21 -31.59824 -58.72167 21130 ft 197 kts 343°
2026-04-23 22:21 -31.58476 -58.72515 21130 ft 197 kts 342°
2026-04-23 22:21 -31.57128 -58.72871 21130 ft 197 kts 342°
2026-04-23 22:21 -31.55766 -58.73238 21130 ft 197 kts 342°
2026-04-23 22:22 -31.54378 -58.73408 21134 ft 199 kts 349°
2026-04-23 22:22 -31.52982 -58.73535 21128 ft 200 kts 349°
2026-04-23 22:22 -31.51583 -58.73660 21131 ft 200 kts 349°
2026-04-23 22:22 -31.50186 -58.73780 21129 ft 200 kts 349°
2026-04-23 22:23 -31.48787 -58.73898 21130 ft 200 kts 349°
2026-04-23 22:23 -31.47410 -58.74014 21129 ft 200 kts 349°
2026-04-23 22:23 -31.46006 -58.74131 21129 ft 200 kts 349°
2026-04-23 22:23 -31.44605 -58.74248 21129 ft 200 kts 349°
2026-04-23 22:24 -31.43224 -58.74363 21129 ft 200 kts 349°
2026-04-23 22:24 -31.41818 -58.74480 21129 ft 200 kts 349°
2026-04-23 22:24 -31.40427 -58.74595 21129 ft 200 kts 349°
2026-04-23 22:24 -31.39033 -58.74711 21129 ft 200 kts 349°
2026-04-23 22:25 -31.37640 -58.74826 21128 ft 200 kts 349°
2026-04-23 22:25 -31.36258 -58.74941 21128 ft 200 kts 349°
2026-04-23 22:25 -31.34871 -58.75056 21128 ft 199 kts 349°
2026-04-23 22:25 -31.33474 -58.75172 21128 ft 199 kts 350°
2026-04-23 22:26 -31.32089 -58.75286 21128 ft 199 kts 349°
2026-04-23 22:26 -31.30680 -58.75406 21129 ft 200 kts 349°
2026-04-23 22:26 -31.29298 -58.75527 21127 ft 200 kts 349°
2026-04-23 22:26 -31.27873 -58.75644 21128 ft 200 kts 349°
2026-04-23 22:27 -31.26488 -58.75758 21127 ft 200 kts 350°
2026-04-23 22:27 -31.25090 -58.75871 21127 ft 200 kts 350°
2026-04-23 22:27 -31.23695 -58.75985 21127 ft 199 kts 349°
2026-04-23 22:27 -31.22301 -58.76100 21127 ft 199 kts 349°
2026-04-23 22:28 -31.20919 -58.76215 21127 ft 199 kts 349°
2026-04-23 22:28 -31.19517 -58.76330 21127 ft 199 kts 349°
2026-04-23 22:28 -31.18127 -58.76446 21127 ft 199 kts 349°
2026-04-23 22:28 -31.16739 -58.76560 21126 ft 199 kts 350°
2026-04-23 22:29 -31.15321 -58.76677 21126 ft 199 kts 349°
2026-04-23 22:29 -31.13938 -58.76793 21126 ft 199 kts 349°
2026-04-23 22:29 -31.12537 -58.76907 21127 ft 199 kts 350°
2026-04-23 22:29 -31.11152 -58.77023 21126 ft 199 kts 349°
2026-04-23 22:30 -31.09740 -58.77142 21125 ft 199 kts 349°
2026-04-23 22:30 -31.08338 -58.77261 21126 ft 200 kts 349°
2026-04-23 22:30 -31.06939 -58.77377 21126 ft 200 kts 350°
2026-04-23 22:30 -31.05520 -58.77492 21125 ft 200 kts 349°
2026-04-23 22:31 -31.04127 -58.77605 21125 ft 200 kts 350°
2026-04-23 22:31 -31.02725 -58.77717 21125 ft 199 kts 350°
2026-04-23 22:31 -31.01313 -58.77834 21124 ft 199 kts 350°
2026-04-23 22:31 -30.99930 -58.77948 21124 ft 199 kts 350°
2026-04-23 22:32 -30.98546 -58.78062 21124 ft 199 kts 351°
2026-04-23 22:32 -30.97137 -58.78178 21124 ft 199 kts 351°
2026-04-23 22:32 -30.95756 -58.78292 21124 ft 199 kts 351°
2026-04-23 22:32 -30.94368 -58.78405 21124 ft 199 kts 352°
2026-04-23 22:33 -30.92969 -58.78517 21124 ft 199 kts 352°
2026-04-23 22:33 -30.91587 -58.78629 21124 ft 199 kts 352°
2026-04-23 22:33 -30.90182 -58.78743 21124 ft 199 kts 352°
2026-04-23 22:33 -30.88764 -58.78859 21134 ft 200 kts 353°
2026-04-23 22:34 -30.87357 -58.78975 21133 ft 200 kts 353°
2026-04-23 22:34 -30.85959 -58.79090 21133 ft 201 kts 353°
2026-04-23 22:34 -30.84544 -58.79206 21132 ft 201 kts 353°
2026-04-23 22:34 -30.83128 -58.79322 21132 ft 201 kts 353°
2026-04-23 22:35 -30.81737 -58.79440 21131 ft 201 kts 352°
2026-04-23 22:35 -30.80315 -58.79558 21131 ft 201 kts 353°
2026-04-23 22:35 -30.78929 -58.79671 21131 ft 201 kts 353°
2026-04-23 22:35 -30.77511 -58.79786 21131 ft 201 kts 353°
2026-04-23 22:36 -30.76119 -58.79899 21132 ft 201 kts 353°
2026-04-23 22:36 -30.74711 -58.80013 21130 ft 201 kts 353°
2026-04-23 22:36 -30.73300 -58.80128 21131 ft 201 kts 353°
2026-04-23 22:36 -30.71897 -58.80241 21130 ft 201 kts 353°
2026-04-23 22:37 -30.70493 -58.80356 21130 ft 201 kts 353°
2026-04-23 22:37 -30.69078 -58.80471 21130 ft 201 kts 353°
2026-04-23 22:37 -30.67683 -58.80584 21130 ft 201 kts 353°
2026-04-23 22:37 -30.66280 -58.80699 21130 ft 201 kts 353°
2026-04-23 22:38 -30.64882 -58.80818 21130 ft 201 kts 352°
2026-04-23 22:38 -30.63494 -58.80931 21130 ft 201 kts 353°
2026-04-23 22:38 -30.62094 -58.81044 21130 ft 201 kts 353°
2026-04-23 22:38 -30.60673 -58.81160 21130 ft 201 kts 353°
2026-04-23 22:39 -30.59280 -58.81274 21129 ft 201 kts 353°
2026-04-23 22:39 -30.57878 -58.81387 21129 ft 201 kts 353°
2026-04-23 22:39 -30.56495 -58.81499 21129 ft 201 kts 353°
2026-04-23 22:39 -30.55107 -58.81612 21128 ft 201 kts 353°
2026-04-23 22:40 -30.53699 -58.81726 21128 ft 200 kts 353°
2026-04-23 22:40 -30.52303 -58.81839 21128 ft 200 kts 353°
2026-04-23 22:40 -30.49500 -58.82066 21127 ft 200 kts 353°
2026-04-23 22:41 -30.48119 -58.82176 21126 ft 200 kts 353°
2026-04-23 22:41 -30.46726 -58.82287 21126 ft 200 kts 353°
2026-04-23 22:41 -30.45318 -58.82399 21124 ft 200 kts 353°
2026-04-23 22:41 -30.43926 -58.82510 21124 ft 200 kts 353°
2026-04-23 22:42 -30.42540 -58.82619 21124 ft 200 kts 353°
2026-04-23 22:42 -30.41148 -58.82730 21122 ft 200 kts 353°
2026-04-23 22:42 -30.39745 -58.82841 21122 ft 200 kts 353°
2026-04-23 22:42 -30.38360 -58.82951 21121 ft 200 kts 353°
2026-04-23 22:43 -30.36959 -58.83062 21120 ft 200 kts 353°
2026-04-23 22:43 -30.35576 -58.83173 21119 ft 198 kts 353°